When you browse on this site, cookies collect data to enhance your experience and personalize the content and advertising you see.
Visit our Privacy Policy to learn more. By continuing to use the site, you agree to this use of cookies and data.
  • In Slovakia
  • List of Countries
  • For 7 days
  • Water Temperature
  • Satellite Maps
  • Weather Map
  • Weather Widgets
  • user-avatar
    Login

    Hourly Weather Dschang

    Today, 16 December, Sunday

    Time Temperature Precipitation Wind Pressure Humidity
    00:00 +18°C° 0 mm 1 mps 645 mmHg 59%
    01:00 +18°C° 0 mm 1 mps 644 mmHg 60%
    02:00 +18°C° 0 mm 1 mps 644 mmHg 57%
    03:00 +18°C° 0 mm 1 mps 644 mmHg 53%
    04:00 +16°C° 0 mm 1 mps 644 mmHg 50%
    05:00 +18°C° 0 mm 1 mps 644 mmHg 48%
    06:00 +18°C° 0 mm 1 mps 645 mmHg 45%
    07:00 +18°C° 0 mm 1 mps 645 mmHg 42%
    08:00 +21°C° 0 mm 1 mps 646 mmHg 36%
    09:00 +25°C° 0 mm 1 mps 647 mmHg 29%
    10:00 +28°C° 0 mm 1 mps 649 mmHg 23%
    11:00 +29°C° 0 mm 2 mps 648 mmHg 21%
    12:00 +30°C° 0 mm 2 mps 648 mmHg 20%
    13:00 +32°C° 0 mm 2 mps 648 mmHg 18%
    14:00 +31°C° 0 mm 2 mps 647 mmHg 19%
    15:00 +31°C° 0 mm 2 mps 647 mmHg 19%
    16:00 +31°C° 0 mm 2 mps 646 mmHg 20%
    17:00 +28°C° 0 mm 2 mps 645 mmHg 27%
    18:00 +25°C° 0 mm 1 mps 645 mmHg 34%
    19:00 +22°C° 0 mm 1 mps 644 mmHg 41%
    20:00 +21°C° 0 mm 1 mps 645 mmHg 47%
    21:00 +21°C° 0 mm 1 mps 645 mmHg 53%
    22:00 +20°C° 0 mm 1 mps 645 mmHg 58%
    23:00 +19°C° 0 mm 1 mps 645 mmHg 57%

    Tomorrow, 17 December, Monday

    Time Temperature Precipitation Wind Pressure Humidity
    00:00 +19°C° 0 mm 1 mps 645 mmHg 55%
    01:00 +19°C° 0 mm 1 mps 645 mmHg 54%
    02:00 +18°C° 0 mm 1 mps 644 mmHg 50%
    03:00 +18°C° 0 mm 1 mps 644 mmHg 45%
    04:00 +18°C° 0 mm 1 mps 644 mmHg 41%
    05:00 +18°C° 0 mm 1 mps 644 mmHg 40%
    06:00 +18°C° 0 mm 1 mps 644 mmHg 40%
    07:00 +18°C° 0 mm 1 mps 645 mmHg 39%
    08:00 +21°C° 0 mm 1 mps 646 mmHg 34%
    09:00 +24°C° 0 mm 1 mps 647 mmHg 29%
    10:00 +28°C° 0 mm 1 mps 648 mmHg 24%
    11:00 +29°C° 0 mm 1 mps 648 mmHg 22%
    12:00 +30°C° 0 mm 2 mps 648 mmHg 21%
    13:00 +31°C° 0 mm 2 mps 647 mmHg 19%
    14:00 +31°C° 0 mm 2 mps 646 mmHg 20%
    15:00 +30°C° 0 mm 2 mps 646 mmHg 21%
    16:00 +30°C° 0 mm 2 mps 645 mmHg 22%
    17:00 +27°C° 0 mm 1 mps 645 mmHg 28%
    18:00 +25°C° 0 mm 1 mps 644 mmHg 35%
    19:00 +22°C° 0 mm 1 mps 644 mmHg 42%
    20:00 +21°C° 0 mm 1 mps 644 mmHg 46%
    21:00 +20°C° 0 mm 1 mps 645 mmHg 51%
    22:00 +20°C° 0 mm 1 mps 645 mmHg 55%
    23:00 +19°C° 0 mm 1 mps 645 mmHg 54%

    Day after tomorrow, 18 December, Tuesday

    Time Temperature Precipitation Wind Pressure Humidity
    00:00 +19°C° 0 mm 1 mps 644 mmHg 53%
    01:00 +18°C° 0 mm 1 mps 644 mmHg 52%
    02:00 +18°C° 0 mm 1 mps 644 mmHg 48%
    03:00 +18°C° 0 mm 1 mps 643 mmHg 43%
    04:00 +18°C° 0 mm 1 mps 643 mmHg 38%
    05:00 +18°C° 0 mm 1 mps 643 mmHg 37%
    06:00 +16°C° 0 mm 1 mps 644 mmHg 36%
    07:00 +16°C° 0 mm 1 mps 644 mmHg 35%
    08:00 +21°C° 0 mm 1 mps 645 mmHg 30%
    09:00 +25°C° 0 mm 1 mps 647 mmHg 25%
    10:00 +28°C° 0 mm 1 mps 648 mmHg 20%
    11:00 +29°C° 0 mm 1 mps 648 mmHg 19%
    12:00 +30°C° 0 mm 2 mps 647 mmHg 18%
    13:00 +32°C° 0 mm 2 mps 647 mmHg 17%
    14:00 +31°C° 0 mm 2 mps 646 mmHg 18%
    15:00 +31°C° 0 mm 2 mps 646 mmHg 19%
    16:00 +30°C° 0 mm 2 mps 645 mmHg 20%
    17:00 +27°C° 0 mm 2 mps 645 mmHg 28%
    18:00 +25°C° 0 mm 1 mps 644 mmHg 35%
    19:00 +22°C° 0 mm 1 mps 644 mmHg 43%
    20:00 +21°C° 0 mm 1 mps 644 mmHg 48%
    21:00 +20°C° 0 mm 1 mps 644 mmHg 52%
    22:00 +17°C° 0 mm 0 mps 645 mmHg 57%
    23:00 +19°C° 0 mm 1 mps 644 mmHg 56%

    19 December, Wednesday

    Time Temperature Precipitation Wind Pressure Humidity
    00:00 +18°C° 0 mm 1 mps 644 mmHg 55%
    01:00 +18°C° 0 mm 1 mps 644 mmHg 54%
    02:00 +18°C° 0 mm 1 mps 644 mmHg 50%
    03:00 +18°C° 0 mm 1 mps 643 mmHg 45%
    04:00 +16°C° 0 mm 1 mps 643 mmHg 41%
    05:00 +16°C° 0 mm 1 mps 644 mmHg 40%
    06:00 +16°C° 0 mm 1 mps 644 mmHg 38%
    07:00 +16°C° 0 mm 1 mps 645 mmHg 37%
    08:00 +21°C° 0 mm 1 mps 646 mmHg 32%
    09:00 +24°C° 0 mm 1 mps 647 mmHg 27%
    10:00 +28°C° 0 mm 1 mps 649 mmHg 22%
    11:00 +29°C° 0 mm 1 mps 648 mmHg 20%
    12:00 +30°C° 0 mm 1 mps 648 mmHg 19%
    13:00 +32°C° 0 mm 2 mps 647 mmHg 17%
    14:00 +31°C° 0 mm 2 mps 647 mmHg 18%
    15:00 +31°C° 0 mm 2 mps 646 mmHg 19%
    16:00 +30°C° 0 mm 2 mps 645 mmHg 20%
    17:00 +27°C° 0 mm 1 mps 645 mmHg 27%
    18:00 +25°C° 0 mm 1 mps 644 mmHg 34%
    19:00 +22°C° 0 mm 1 mps 644 mmHg 41%
    20:00 +21°C° 0 mm 1 mps 644 mmHg 47%
    21:00 +20°C° 0 mm 1 mps 644 mmHg 52%
    22:00 +19°C° 0 mm 1 mps 645 mmHg 57%
    23:00 +19°C° 0 mm 1 mps 644 mmHg 56%

    20 December, Thursday

    Time Temperature Precipitation Wind Pressure Humidity
    00:00 +18°C° 0 mm 1 mps 644 mmHg 55%
    01:00 +18°C° 0 mm 1 mps 644 mmHg 55%
    02:00 +18°C° 0 mm 1 mps 643 mmHg 51%
    03:00 +18°C° 0 mm 1 mps 643 mmHg 47%
    04:00 +16°C° 0 mm 1 mps 643 mmHg 43%
    05:00 +16°C° 0 mm 1 mps 643 mmHg 41%
    06:00 +16°C° 0 mm 1 mps 644 mmHg 40%
    07:00 +16°C° 0 mm 1 mps 644 mmHg 39%
    08:00 +21°C° 0 mm 1 mps 645 mmHg 33%
    09:00 +24°C° 0 mm 1 mps 647 mmHg 28%
    10:00 +28°C° 0 mm 1 mps 648 mmHg 22%
    11:00 +29°C° 0 mm 1 mps 648 mmHg 21%
    12:00 +30°C° 0 mm 1 mps 647 mmHg 19%
    13:00 +32°C° 0 mm 2 mps 647 mmHg 17%
    14:00 +31°C° 0 mm 2 mps 646 mmHg 18%
    15:00 +31°C° 0 mm 2 mps 645 mmHg 19%
    16:00 +30°C° 0 mm 2 mps 645 mmHg 20%
    17:00 +27°C° 0 mm 2 mps 644 mmHg 28%
    18:00 +25°C° 0 mm 1 mps 644 mmHg 35%
    19:00 +22°C° 0 mm 1 mps 644 mmHg 42%
    20:00 +21°C° 0 mm 1 mps 644 mmHg 46%
    21:00 +20°C° 0 mm 1 mps 644 mmHg 50%
    22:00 +18°C° 0 mm 0 mps 645 mmHg 55%
    23:00 +19°C° 0 mm 1 mps 644 mmHg 53%

    21 December, Friday

    Time Temperature Precipitation Wind Pressure Humidity
    00:00 +19°C° 0 mm 1 mps 644 mmHg 51%
    01:00 +18°C° 0 mm 1 mps 644 mmHg 49%
    02:00 +18°C° 0 mm 1 mps 643 mmHg 45%
    03:00 +18°C° 0 mm 1 mps 643 mmHg 41%
    04:00 +18°C° 0 mm 1 mps 643 mmHg 37%
    05:00 +18°C° 0 mm 1 mps 644 mmHg 36%
    06:00 +16°C° 0 mm 1 mps 644 mmHg 36%
    07:00 +16°C° 0 mm 1 mps 644 mmHg 35%
    08:00 +21°C° 0 mm 1 mps 645 mmHg 31%
    09:00 +24°C° 0 mm 1 mps 647 mmHg 26%
    10:00 +28°C° 0 mm 1 mps 648 mmHg 22%
    11:00 +29°C° 0 mm 1 mps 647 mmHg 20%
    12:00 +31°C° 0 mm 1 mps 647 mmHg 19%
    13:00 +32°C° 0 mm 1 mps 647 mmHg 17%
    14:00 +31°C° 0 mm 2 mps 646 mmHg 18%
    15:00 +31°C° 0 mm 2 mps 645 mmHg 19%
    16:00 +30°C° 0 mm 2 mps 645 mmHg 20%
    17:00 +28°C° 0 mm 1 mps 644 mmHg 26%
    18:00 +25°C° 0 mm 1 mps 644 mmHg 33%
    19:00 +22°C° 0 mm 1 mps 643 mmHg 39%
    20:00 +21°C° 0 mm 1 mps 643 mmHg 43%
    21:00 +20°C° 0 mm 1 mps 644 mmHg 47%
    22:00 +19°C° 0 mm 1 mps 644 mmHg 51%
    23:00 +19°C° 0 mm 1 mps 644 mmHg 49%
    Show more